TimeEST,TemperatureF,Dew PointF,Humidity,Sea Level PressureIn,VisibilityMPH,Wind Direction,Wind SpeedMPH,Gust SpeedMPH,PrecipitationIn,Events,Conditions,WindDirDegrees,DateUTC
12:53 AM,73.9,68.0,82,29.95,10.0,SE,9.2,-,N/A,,Partly Cloudy,130,2012-12-07 05:53:00
1:53 AM,73.9,66.9,79,29.93,10.0,SSE,8.1,-,N/A,,Clear,150,2012-12-07 06:53:00
2:33 AM,73.4,68.0,83,29.93,10.0,SE,8.1,-,N/A,,Mostly Cloudy,140,2012-12-07 07:33:00
2:53 AM,73.9,68.0,82,29.93,10.0,SE,10.4,-,N/A,,Mostly Cloudy,130,2012-12-07 07:53:00
3:06 AM,73.4,66.2,78,29.92,10.0,SSE,8.1,-,N/A,,Scattered Clouds,150,2012-12-07 08:06:00
3:53 AM,75.0,68.0,79,29.92,10.0,SSE,8.1,-,N/A,,Mostly Cloudy,160,2012-12-07 08:53:00
4:07 AM,73.4,68.0,83,29.91,10.0,SSE,9.2,-,N/A,,Mostly Cloudy,150,2012-12-07 09:07:00
4:53 AM,75.0,66.0,73,29.92,10.0,SE,13.8,-,N/A,,Mostly Cloudy,130,2012-12-07 09:53:00
5:53 AM,73.9,66.0,76,29.95,10.0,SE,11.5,-,0.00,,Partly Cloudy,140,2012-12-07 10:53:00
6:53 AM,75.0,68.0,79,29.95,10.0,SSE,9.2,-,N/A,,Scattered Clouds,150,2012-12-07 11:53:00
7:53 AM,75.0,66.9,76,29.96,10.0,SSE,8.1,-,N/A,,Clear,150,2012-12-07 12:53:00
8:53 AM,77.0,66.9,71,29.98,10.0,SSE,11.5,-,N/A,,Scattered Clouds,150,2012-12-07 13:53:00
9:53 AM,78.1,66.9,68,30.00,10.0,SE,10.4,-,N/A,,Scattered Clouds,140,2012-12-07 14:53:00
10:53 AM,78.1,66.9,68,29.99,10.0,SSE,11.5,-,N/A,,Scattered Clouds,160,2012-12-07 15:53:00
11:53 AM,78.1,66.9,68,29.98,10.0,SSE,12.7,-,N/A,,Scattered Clouds,150,2012-12-07 16:53:00
12:53 PM,78.1,66.0,66,29.95,10.0,SSE,11.5,-,N/A,,Partly Cloudy,160,2012-12-07 17:53:00
1:53 PM,78.1,66.9,68,29.93,10.0,SE,11.5,-,N/A,,Clear,140,2012-12-07 18:53:00
2:53 PM,78.1,66.9,68,29.92,10.0,SE,11.5,-,N/A,,Clear,130,2012-12-07 19:53:00
3:53 PM,77.0,66.9,71,29.92,10.0,ESE,9.2,-,N/A,,Scattered Clouds,120,2012-12-07 20:53:00
4:53 PM,75.0,66.9,76,29.93,10.0,SE,10.4,-,N/A,,Partly Cloudy,140,2012-12-07 21:53:00
5:53 PM,75.9,68.0,76,29.94,10.0,SE,9.2,-,N/A,,Scattered Clouds,130,2012-12-07 22:53:00
6:53 PM,75.0,68.0,79,29.96,10.0,SE,6.9,-,N/A,,Partly Cloudy,130,2012-12-07 23:53:00
8:53 PM,75.0,68.0,79,29.99,10.0,SE,8.1,-,N/A,,Scattered Clouds,130,2012-12-08 01:53:00
9:12 PM,75.2,68.0,78,29.99,10.0,SE,8.1,-,N/A,,Mostly Cloudy,130,2012-12-08 02:12:00
9:53 PM,75.0,66.9,76,29.99,10.0,SE,6.9,-,N/A,,Mostly Cloudy,130,2012-12-08 02:53:00
10:05 PM,75.2,66.2,73,29.99,10.0,SE,6.9,-,N/A,,Scattered Clouds,130,2012-12-08 03:05:00
10:53 PM,75.0,66.0,73,30.00,10.0,SE,6.9,-,N/A,,Clear,130,2012-12-08 03:53:00
11:53 PM,73.9,66.9,79,29.99,10.0,ESE,5.8,-,N/A,,Partly Cloudy,120,2012-12-08 04:53:00